• In Czech Republic
  • List of Countries
  • For 7 days
  • Water Temperature
  • Satellite Maps
  • Weather Map
  • Weather Widgets
  • user-avatar
    Login

    Hourly Weather Klagenfurt

    Today, 19 October, Friday

    Time Temperature Precipitation Wind Pressure Humidity
    00:00 +10°C° 0 mm 1 mps 691 mmHg 91%
    01:00 +10°C° 0 mm 1 mps 691 mmHg 90%
    02:00 +10°C° 0 mm 1 mps 691 mmHg 90%
    03:00 +10°C° 0 mm 1 mps 691 mmHg 91%
    04:00 +10°C° 0 mm 1 mps 691 mmHg 91%
    05:00 +10°C° 0 mm 1 mps 691 mmHg 91%
    06:00 +9°C° 0 mm 1 mps 692 mmHg 91%
    07:00 +9°C° 0 mm 1 mps 692 mmHg 91%
    08:00 +12°C° 0 mm 1 mps 692 mmHg 82%
    09:00 +14°C° 0 mm 1 mps 693 mmHg 74%
    10:00 +16°C° 0 mm 1 mps 693 mmHg 65%
    11:00 +18°C° 0 mm 1 mps 693 mmHg 62%
    12:00 +19°C° 0 mm 1 mps 693 mmHg 58%
    13:00 +20°C° 0 mm 1 mps 694 mmHg 55%
    14:00 +19°C° 0 mm 1 mps 693 mmHg 59%
    15:00 +18°C° 0 mm 1 mps 693 mmHg 64%
    16:00 +16°C° 0 mm 1 mps 693 mmHg 68%
    17:00 +14°C° 0 mm 1 mps 693 mmHg 75%
    18:00 +12°C° 0 mm 1 mps 693 mmHg 81%
    19:00 +11°C° 0 mm 1 mps 693 mmHg 87%
    20:00 +10°C° 0 mm 1 mps 693 mmHg 89%
    21:00 +10°C° 0 mm 1 mps 693 mmHg 90%
    22:00 +8°C° 0 mm 0 mps 693 mmHg 91%
    23:00 +9°C° 0 mm 1 mps 694 mmHg 91%

    Tomorrow, 20 October, Saturday

    Time Temperature Precipitation Wind Pressure Humidity
    00:00 +9°C° 0 mm 1 mps 694 mmHg 92%
    01:00 +9°C° 0 mm 1 mps 694 mmHg 92%
    02:00 +8°C° 0 mm 1 mps 694 mmHg 92%
    03:00 +8°C° 0 mm 1 mps 694 mmHg 93%
    04:00 +8°C° 0 mm 1 mps 694 mmHg 93%
    05:00 +8°C° 0 mm 1 mps 694 mmHg 92%
    06:00 +8°C° 0 mm 1 mps 694 mmHg 92%
    07:00 +8°C° 0 mm 1 mps 695 mmHg 92%
    08:00 +10°C° 0 mm 1 mps 695 mmHg 82%
    09:00 +13°C° 0 mm 1 mps 696 mmHg 72%
    10:00 +15°C° 0 mm 1 mps 696 mmHg 63%
    11:00 +16°C° 0 mm 1 mps 697 mmHg 58%
    12:00 +18°C° 0 mm 1 mps 697 mmHg 54%
    13:00 +19°C° 0 mm 1 mps 697 mmHg 49%
    14:00 +18°C° 0 mm 1 mps 696 mmHg 54%
    15:00 +16°C° 0 mm 1 mps 696 mmHg 58%
    16:00 +16°C° 0 mm 1 mps 696 mmHg 63%
    17:00 +14°C° 0 mm 1 mps 696 mmHg 70%
    18:00 +12°C° 0 mm 1 mps 696 mmHg 76%
    19:00 +10°C° 0 mm 1 mps 696 mmHg 83%
    20:00 +9°C° 0 mm 1 mps 696 mmHg 85%
    21:00 +9°C° 0 mm 1 mps 696 mmHg 87%
    22:00 +8°C° 0 mm 1 mps 696 mmHg 89%
    23:00 +8°C° 0 mm 1 mps 696 mmHg 90%

    Day after tomorrow, 21 October, Sunday

    Time Temperature Precipitation Wind Pressure Humidity
    00:00 +8°C° 0 mm 1 mps 696 mmHg 90%
    01:00 +7°C° 0 mm 1 mps 696 mmHg 91%
    02:00 +7°C° 0 mm 1 mps 696 mmHg 92%
    03:00 +7°C° 0 mm 1 mps 696 mmHg 92%
    04:00 +6°C° 0 mm 1 mps 695 mmHg 92%
    05:00 +6°C° 0 mm 1 mps 695 mmHg 92%
    06:00 +6°C° 0 mm 1 mps 695 mmHg 91%
    07:00 +6°C° 0 mm 1 mps 695 mmHg 91%
    08:00 +9°C° 0 mm 1 mps 696 mmHg 80%
    09:00 +11°C° 0 mm 1 mps 696 mmHg 70%
    10:00 +13°C° 0 mm 1 mps 696 mmHg 59%
    11:00 +14°C° 0 mm 1 mps 696 mmHg 54%
    12:00 +16°C° 0 mm 1 mps 696 mmHg 49%
    13:00 +18°C° 0 mm 1 mps 695 mmHg 44%
    14:00 +16°C° 0 mm 1 mps 695 mmHg 49%
    15:00 +15°C° 0 mm 1 mps 694 mmHg 54%
    16:00 +14°C° 0 mm 1 mps 694 mmHg 59%
    17:00 +12°C° 0 mm 1 mps 694 mmHg 67%
    18:00 +10°C° 0 mm 1 mps 694 mmHg 75%
    19:00 +8°C° 0 mm 1 mps 694 mmHg 83%
    20:00 +8°C° 0 mm 1 mps 694 mmHg 84%
    21:00 +7°C° 0 mm 1 mps 694 mmHg 85%
    22:00 +7°C° 0 mm 1 mps 694 mmHg 86%
    23:00 +7°C° 0 mm 1 mps 694 mmHg 86%

    22 October, Monday

    Time Temperature Precipitation Wind Pressure Humidity
    00:00 +7°C° 0 mm 1 mps 693 mmHg 86%
    01:00 +6°C° 0 mm 1 mps 693 mmHg 86%
    02:00 +7°C° 0 mm 1 mps 693 mmHg 86%
    03:00 +7°C° 0 mm 1 mps 693 mmHg 85%
    04:00 +7°C° 0 mm 1 mps 693 mmHg 85%
    05:00 +7°C° 0.1 mm 1 mps 693 mmHg 86%
    06:00 +6°C° 0.1 mm 1 mps 693 mmHg 88%
    07:00 +6°C° 0.1 mm 1 mps 693 mmHg 89%
    08:00 +8°C° 0 mm 1 mps 694 mmHg 81%
    09:00 +9°C° 0 mm 1 mps 694 mmHg 73%
    10:00 +10°C° 0 mm 2 mps 694 mmHg 65%
    11:00 +12°C° 0 mm 2 mps 694 mmHg 58%
    12:00 +13°C° 0 mm 2 mps 694 mmHg 52%
    13:00 +14°C° 0 mm 2 mps 694 mmHg 46%
    14:00 +13°C° 0 mm 2 mps 694 mmHg 49%
    15:00 +13°C° 0 mm 1 mps 693 mmHg 52%
    16:00 +12°C° 0 mm 1 mps 693 mmHg 56%
    17:00 +10°C° 0 mm 1 mps 693 mmHg 62%
    18:00 +8°C° 0 mm 1 mps 693 mmHg 68%
    19:00 +6°C° 0 mm 1 mps 693 mmHg 74%
    20:00 +6°C° 0 mm 1 mps 693 mmHg 76%
    21:00 +5°C° 0 mm 1 mps 693 mmHg 78%
    22:00 +5°C° 0 mm 1 mps 693 mmHg 79%
    23:00 +5°C° 0 mm 1 mps 693 mmHg 80%

    23 October, Tuesday

    Time Temperature Precipitation Wind Pressure Humidity
    00:00 +5°C° 0 mm 1 mps 693 mmHg 81%
    01:00 +4°C° 0 mm 1 mps 692 mmHg 82%
    02:00 +5°C° 0.1 mm 1 mps 692 mmHg 81%
    03:00 +5°C° 0.1 mm 1 mps 692 mmHg 81%
    04:00 +6°C° 0.1 mm 1 mps 692 mmHg 80%
    05:00 +5°C° 0.1 mm 1 mps 692 mmHg 82%
    06:00 +5°C° 0.1 mm 1 mps 692 mmHg 84%
    07:00 +5°C° 0.1 mm 1 mps 692 mmHg 86%
    08:00 +7°C° 0 mm 1 mps 693 mmHg 79%
    09:00 +7°C° 0 mm 2 mps 693 mmHg 72%
    10:00 +9°C° 0 mm 2 mps 694 mmHg 65%
    11:00 +9°C° 0.1 mm 2 mps 694 mmHg 60%
    12:00 +9°C° 0.1 mm 3 mps 694 mmHg 56%
    13:00 +10°C° 0.1 mm 3 mps 693 mmHg 51%
    14:00 +9°C° 0.1 mm 3 mps 693 mmHg 52%
    15:00 +8°C° 0.1 mm 2 mps 693 mmHg 53%
    16:00 +8°C° 0.1 mm 2 mps 693 mmHg 54%
    17:00 +6°C° 0 mm 2 mps 693 mmHg 60%
    18:00 +5°C° 0 mm 1 mps 693 mmHg 66%
    19:00 +3°C° 0 mm 1 mps 693 mmHg 72%
    20:00 +3°C° 0 mm 1 mps 693 mmHg 71%
    21:00 +3°C° 0 mm 1 mps 693 mmHg 70%
    22:00 +3°C° 0 mm 1 mps 693 mmHg 70%
    23:00 +3°C° 0 mm 1 mps 693 mmHg 69%

    24 October, Wednesday

    Time Temperature Precipitation Wind Pressure Humidity
    00:00 +3°C° 0 mm 1 mps 693 mmHg 68%
    01:00 +4°C° 0 mm 1 mps 692 mmHg 67%
    02:00 +4°C° 0 mm 1 mps 692 mmHg 67%
    03:00 +4°C° 0 mm 1 mps 692 mmHg 68%
    04:00 +4°C° 0 mm 1 mps 692 mmHg 68%
    05:00 +4°C° 0.1 mm 1 mps 692 mmHg 69%
    06:00 +4°C° 0.1 mm 1 mps 692 mmHg 70%
    07:00 +4°C° 0.1 mm 1 mps 691 mmHg 72%
    08:00 +6°C° 0.1 mm 1 mps 691 mmHg 70%
    09:00 +7°C° 0.1 mm 1 mps 691 mmHg 68%
    10:00 +9°C° 0.1 mm 1 mps 692 mmHg 66%
    11:00 +10°C° 0.1 mm 1 mps 691 mmHg 65%
    12:00 +11°C° 0.1 mm 1 mps 691 mmHg 64%
    13:00 +12°C° 0.1 mm 2 mps 691 mmHg 63%
    14:00 +10°C° 0 mm 2 mps 690 mmHg 66%
    15:00 +11°C° 0 mm 1 mps 690 mmHg 69%
    16:00 +11°C° 0 mm 1 mps 690 mmHg 71%
    17:00 +10°C° 0 mm 1 mps 690 mmHg 75%
    18:00 +9°C° 0 mm 1 mps 690 mmHg 78%
    19:00 +8°C° 0 mm 1 mps 689 mmHg 81%
    20:00 +8°C° 0 mm 1 mps 689 mmHg 81%
    21:00 +8°C° 0 mm 1 mps 690 mmHg 80%
    22:00 +8°C° 0 mm 1 mps 690 mmHg 80%
    23:00 +8°C° 0 mm 1 mps 690 mmHg 81%
    Show more